Lexington Weather

Lexington, Massachusetts, USA

52°F
10/17/2021 9:51pm 
  • Lexington Conditions: Partly cloudy
  • Temperature: 52.2°F / 11.2°CColder 0.9°F than last hour.
  • Dew Point: 47.1°FDecreased 0.6°Fsince last hour.
  • Relative Humidity: 83%Increased 1.0% since last hour.
  • Wind: Calm, 10-min avg: Calm, gust: 2 mph
  • Barometer: 29.68 in Steady
  • Visibility: 10 miles
  • Rain Today: 0.35 in
  •   

Regional Weather Roundup
for Boston / Norton, MA

        
000
ASUS41 KBOX 120904
RWRBOX

REGIONAL WEATHER ROUNDUP
NATIONAL WEATHER SERVICE BOSTON/NORTON MA
500 AM EDT TUE OCT 12 2021

NOTE:  "FAIR" INDICATES FEW OR NO CLOUDS BELOW 12,000 FEET WITH NO 
SIGNIFICANT WEATHER AND/OR OBSTRUCTIONS TO VISIBILITY.

MAZALL-121000-
EASTERN MASSACHUSETTS
  
CITY           SKY/WX    TMP DP  RH WIND       PRES   REMARKS
BOSTON         FOG       58  56  93 W3        30.13S VSB 1/4          
BEVERLY        FOG       53  52  96 CALM      30.12S VSB 1/4          
LAWRENCE       FOG       55  55 100 CALM      30.15S VSB 1/4          
BEDFORD        FOG       55  55 100 CALM      30.12S VSB 1/4          
BLUE HILL      NOT AVBL                                               
NORWOOD        MOCLDY    53  51  93 NW3       30.13S                  
MARSHFIELD     PTCLDY    52  50  93 CALM      30.12S                  
PLYMOUTH       FOG       55  55 100 CALM      30.12S VSB 1/2          
TAUNTON        FOG       56  56 100 CALM      30.13R VSB 1/4          
NEW BEDFORD    FOG       56  55  97 N3        30.11S VSB 1/2          
$$

MAZALL-121000-
CAPE COD AND THE ISLANDS
  
CITY           SKY/WX    TMP DP  RH WIND       PRES   REMARKS
FALMOUTH       FOG       57  59 100 NE6       30.11F VSB 1/4          
HYANNIS        FOG       56  55  97 CALM      30.10S VSB 1/2          
CHATHAM        PTCLDY    58  57  97 NE3       30.12S                  
PROVINCETOWN   FOG       50  50 100 CALM      30.12S VSB 1/4          
NANTUCKET      CLEAR     59  57  93 NE7       30.10F                  
MARTHAS VNYRD  FOG       52  52 100 N6        30.11S VSB 3/4          
$$
 
MAZALL-121000-
CENTRAL AND WESTERN MASSACHUSETTS
  
CITY           SKY/WX    TMP DP  RH WIND       PRES   REMARKS
WORCESTER      CLEAR     54  53  97 CALM      30.14F                  
FITCHBURG      CLEAR     50  48  93 CALM      30.15S                  
ORANGE         FOG       51  50  96 CALM      30.15F VSB 1/4          
SPRINGFIELD    FOG       48  48 100 CALM      30.13S VSB 5/8          
WESTFIELD      FOG       52  52 100 N3        30.14S VSB 1/2          
NORTH ADAMS    FOG       50  48  93 CALM      30.16R VSB 3/4          
PITTSFIELD     FOG       48  47  96 CALM      30.14S VSB 1/4          
$$
 
RIZALL-121000-
RHODE ISLAND
  
CITY           SKY/WX    TMP DP  RH WIND       PRES   REMARKS
PROVIDENCE     FOG       56  56 100 N7        30.13S VSB 1/2          
NEWPORT        FOG       54  54 100 CALM      30.12R VSB 1/4          
BLOCK ISLAND   CLOUDY    60  58  92 NE9       30.11S                  
SMITHFIELD     FOG       51  51 100 N3        30.13F VSB<1/4          
WESTERLY       FOG       55  55 100 N5        30.12R VSB 1            
$$
 
CTZALL-121000-
CONNECTICUT
  
CITY           SKY/WX    TMP DP  RH WIND       PRES   REMARKS
BRADLEY INTL   FOG       53  53 100 N6        30.13S VSB 1/2          
HARTFORD       FOG       55  53  93 N6        30.13S VSB 1/4          
BRIDGEPORT     CLEAR     58  56  93 N6        30.12S                  
DANBURY        FOG       56  55  97 CALM      30.14S VSB 1/4          
GROTON         CLEAR     54  53  97 N8        30.11S                  
NEW HAVEN      CLEAR     56  55  97 N3        30.12S                  
CHESTER        FAIR      55  55 100 VRB5      30.12S                  
MERIDEN        PTCLDY    52  50  93 CALM      30.13S                  
WILLIMANTIC    FOG       50  49  96 CALM      30.14S VSB 1/2          
OXFORD         CLEAR     54  53  97 N3        30.14S                  
$$

MEZ002-015-021-024-NHZ003-005-008-011-012-014-VTZ005-008-121000-
NORTHERN NEW ENGLAND
  
CITY           SKY/WX    TMP DP  RH WIND       PRES   REMARKS
PORTLAND ME    CLEAR     51  51 100 CALM      30.12S                  
BANGOR ME      PTCLDY    48  47  96 CALM      30.11S                  
CONCORD NH     FOG       52  51  97 CALM      30.14S VSB 1/4          
MANCHESTER NH  FOG       53  51  93 CALM      30.12S VSB 1            
NASHUA NH      MOCLDY    51  51 100 NW3       30.15S                  
PORTSMOUTH NH  MOCLDY    52  52 100 NW3       30.14S FOG              
JAFFREY NH     CLOUDY    48  48 100 CALM      30.15S FOG              
KEENE NH       FOG       50  50 100 CALM      30.16R VSB 1/2          
BURLINGTON VT  CLEAR     57  54  89 NE3       30.12R                  
MT. WASHINGTON PTCLDY    48  41  76 NW7         N/A                   
$$

NYZ052-076-121000-
EASTERN NEW YORK
  
CITY           SKY/WX    TMP DP  RH WIND       PRES   REMARKS
ALBANY         FOG       52  51  97 CALM      30.14R VSB 1            
NEW YORK CITY  CLOUDY    63  58  83 NE8       30.10F                  
$$
 
ANZALL-121000-
MARINE OBSERVATIONS
  
STATION/POSITION TIME  TEMP    WIND        PRES    VSBY  WAVE
                       AIR SEA DIR/SP/G                  HT/PER
                 (UTC) (F)     (DEG/KT/KT) (MB)    (MI)  (FT/S)
BOSTON BUOY      0840      63  310/  4/  8 1020.3F
BUZZARDS BAY     0800           30/ 10/ 11 1020.4F
NANTUCKET SOUND  0850   64 66   70/ 10/ 12 1019.1F         2/ 7
MASS BAY-STELLWA 0804   59     360/  6/  6 1019.5S  1 7/8  4/ 8
ISLE OF SHOALS   0800   59     280/  5/  6 1019.5F
S OF BLOCK IS    0826      64                N/A           7/ 9
$$

......................KEY.........................
  SKY/WX - SKY CONDITION/PRESENT WEATHER
  TMP    - TEMPERATURE IN FAHRENHEIT
  DWPT   - DEWPOINT IN FAHRENHEIT
  RH     - RELATIVE HUMIDITY IN PERCENT
  WIND   - DIRECTION AND SPEED IN MPH
  PRES   - MEAN SEA LEVEL PRESSURE IN INCHES OF HG
  WCI    - WIND CHILL INDEX
  VSB    - VISIBILITY IN MILES
  HX     - HEAT INDEX
  TC     - TEMPERATURE IN CELSIUS
  VRB    - VARIABLE WIND DIRECTION
  N/A    - NOT AVAILABLE
  
      

Other recent Regional Weather Roundups

Sun Oct 17, 9:04pm

Sun Oct 17, 8:04pm

Sun Oct 17, 7:04pm

Sun Oct 17, 6:04pm

Sun Oct 17, 5:04pm

Sun Oct 17, 4:04pm

Sun Oct 17, 3:04pm

Sun Oct 17, 2:04pm

Sun Oct 17, 1:04pm

Sun Oct 17, 12:04pm

Sun Oct 17, 11:04am

Sun Oct 17, 10:04am

Sun Oct 17, 9:04am

Sun Oct 17, 8:04am

Sun Oct 17, 7:04am

Sun Oct 17, 6:04am

Sun Oct 17, 5:04am

Sun Oct 17, 4:04am

Sun Oct 17, 3:04am

Sun Oct 17, 2:04am

Sun Oct 17, 1:04am

Sun Oct 17, 12:04am

Sat Oct 16, 11:04pm

Sat Oct 16, 10:04pm

Sat Oct 16, 9:04pm

Sat Oct 16, 8:04pm

Sat Oct 16, 7:04pm

Sat Oct 16, 6:04pm

Sat Oct 16, 5:04pm

Sat Oct 16, 4:04pm

Sat Oct 16, 3:04pm

Sat Oct 16, 2:04pm

Sat Oct 16, 1:04pm

Sat Oct 16, 12:04pm

Sat Oct 16, 11:04am

Sat Oct 16, 10:04am

Sat Oct 16, 9:04am

Sat Oct 16, 8:04am

Sat Oct 16, 7:04am

Sat Oct 16, 6:04am

Sat Oct 16, 5:04am

Sat Oct 16, 4:04am

Sat Oct 16, 3:04am

Sat Oct 16, 2:04am

Sat Oct 16, 1:04am

Sat Oct 16, 12:04am

Fri Oct 15, 11:04pm

Fri Oct 15, 10:04pm

Fri Oct 15, 9:04pm

Fri Oct 15, 8:04pm

Fri Oct 15, 7:04pm

Fri Oct 15, 6:04pm

Fri Oct 15, 5:04pm

Fri Oct 15, 4:04pm

Fri Oct 15, 3:04pm

Fri Oct 15, 2:05pm

Fri Oct 15, 1:05pm

Fri Oct 15, 12:04pm

Fri Oct 15, 11:05am

Fri Oct 15, 10:04am

Fri Oct 15, 9:04am

Fri Oct 15, 8:04am

Fri Oct 15, 7:04am

Fri Oct 15, 6:04am

Fri Oct 15, 5:04am

Fri Oct 15, 4:04am

Fri Oct 15, 3:05am

Fri Oct 15, 2:04am

Fri Oct 15, 1:04am

Fri Oct 15, 12:04am

Thu Oct 14, 11:04pm

Thu Oct 14, 10:04pm

Thu Oct 14, 9:04pm

Thu Oct 14, 8:04pm

Thu Oct 14, 7:04pm

Thu Oct 14, 6:04pm

Thu Oct 14, 5:04pm

Thu Oct 14, 4:04pm

Thu Oct 14, 3:04pm

Thu Oct 14, 2:04pm

Thu Oct 14, 1:04pm

Thu Oct 14, 12:04pm

Thu Oct 14, 11:04am

Thu Oct 14, 10:04am

Thu Oct 14, 9:04am

Thu Oct 14, 8:04am

Thu Oct 14, 7:04am

Thu Oct 14, 6:04am

Thu Oct 14, 5:04am

Thu Oct 14, 4:04am

Thu Oct 14, 3:04am

Thu Oct 14, 2:04am

Thu Oct 14, 1:04am

Thu Oct 14, 12:04am

Wed Oct 13, 11:04pm

Wed Oct 13, 10:04pm

Wed Oct 13, 9:04pm

Wed Oct 13, 8:04pm

Wed Oct 13, 7:04pm

Wed Oct 13, 6:04pm

Wed Oct 13, 5:04pm

Wed Oct 13, 4:04pm

Wed Oct 13, 3:04pm

Wed Oct 13, 2:04pm

Wed Oct 13, 1:04pm

Wed Oct 13, 12:04pm

Wed Oct 13, 11:04am

Wed Oct 13, 10:04am

Wed Oct 13, 9:04am

Wed Oct 13, 8:04am

Wed Oct 13, 7:04am

Wed Oct 13, 6:04am

Wed Oct 13, 5:04am

Wed Oct 13, 4:04am

Wed Oct 13, 3:04am

Wed Oct 13, 2:04am

Wed Oct 13, 1:04am

Wed Oct 13, 12:04am

Tue Oct 12, 11:04pm

Tue Oct 12, 10:04pm

Tue Oct 12, 9:04pm

Tue Oct 12, 8:04pm

Tue Oct 12, 7:04pm

Tue Oct 12, 6:04pm

Tue Oct 12, 5:04pm

Tue Oct 12, 4:04pm

Tue Oct 12, 3:04pm

Tue Oct 12, 2:04pm

Tue Oct 12, 1:04pm

Tue Oct 12, 12:04pm

Tue Oct 12, 11:05am

Tue Oct 12, 10:04am

Tue Oct 12, 9:04am

Tue Oct 12, 8:04am

Tue Oct 12, 7:04am

Tue Oct 12, 6:04am

Tue Oct 12, 4:04am

Tue Oct 12, 3:04am

Tue Oct 12, 2:04am

Tue Oct 12, 1:04am

Tue Oct 12, 12:04am

Mon Oct 11, 11:04pm

Mon Oct 11, 10:04pm

Mon Oct 11, 9:04pm

Mon Oct 11, 8:04pm

Mon Oct 11, 7:04pm

Mon Oct 11, 6:04pm

Mon Oct 11, 5:04pm

Mon Oct 11, 4:04pm

Mon Oct 11, 3:04pm

Mon Oct 11, 2:04pm

Mon Oct 11, 1:04pm

Mon Oct 11, 12:04pm

Mon Oct 11, 11:04am

Mon Oct 11, 10:04am

Mon Oct 11, 9:04am

Mon Oct 11, 8:04am

Mon Oct 11, 7:04am

Mon Oct 11, 6:04am

Mon Oct 11, 5:04am

Mon Oct 11, 4:04am

Mon Oct 11, 3:04am

Mon Oct 11, 2:04am

Mon Oct 11, 1:04am

Mon Oct 11, 12:05am

Sun Oct 10, 11:04pm

Sun Oct 10, 10:04pm

Meta data:

ID: 3f0db470-b3a3-4dcb-bf5e-2697484c169c
Link: https://api.weather.gov/products/3f0db470-b3a3-4dcb-bf5e-2697484c169c